Snowfall_Accumulation
0.0 0.0 0.0 0.0 0.0 0.0 0.0 0.0 0.0 0.0 0.0 0.0 0.0 0.0 0.0 0.0 0.0 0.0 0.0 0.0 0.0 0.0 0.0 0.0 0.0 0.0 0.0 0.0 0.0 0.1 0.1 0.2 0.3 0.2 0.2 0.1 0.0 0.1 0.0 0.0 0.0 0.0 0.0
0.2 0.1 0.0 0.0 0.0 0.0 0.0 0.0 0.0 0.0 0.0 0.0 0.0 0.0 0.0 0.0 0.0 0.0 0.0 0.0 0.0 0.0 0.0 0.0 0.0 0.0 0.1 0.1 0.1 0.1 0.1 0.2 0.2 0.3 0.2 0.3 0.3 0.2 0.1 0.1 0.0 0.0 0.1
0.3 0.2 0.1 0.0 0.0 0.0 0.0 0.0 0.0 0.0 0.0 0.0 0.0 0.0 0.0 0.0 0.0 0.0 0.0 0.0 0.0 0.0 0.0 0.0 0.0 0.1 0.2 0.3 0.2 0.1 0.2 0.2 0.3 0.4 0.4 0.5 0.5 0.4 0.3 0.2 0.1 0.0 0.0
0.3 0.3 0.4 0.3 0.1 0.0 0.0 0.0 0.0 0.0 0.0 0.0 0.0 0.0 0.0 0.0 0.0 0.0 0.0 0.0 0.0 0.0 0.0 0.1 0.1 0.3 0.5 0.4 0.4 0.4 0.5 0.7 0.8 0.7 0.9 1.2 1.2 0.7 0.6 0.6 0.5 0.4 0.2
0.6 0.3 0.4 0.3 0.3 0.3 0.1 0.0 0.0 0.0 0.0 0.0 0.0 0.0 0.0 0.0 0.0 0.0 0.1 0.1 0.0 0.0 0.0 0.3 0.5 0.5 0.3 0.5 0.5 0.9 0.9 1.0 1.4 2.1 2.4 1.8 0.9 0.7 0.7 0.6 0.9 0.7 0.5
0.7 0.9 0.3 0.2 0.2 0.3 0.2 0.0 0.0 0.0 0.0 0.1 0.0 0.1 0.1 0.0 0.0 0.0 0.1 0.1 0.1 0.2 0.4 0.7 0.7 0.8 0.7 0.4 0.2 0.5 1.1 2.1 3.0 3.5 2.5 1.4 0.7 0.5 0.5 0.7 1.2 1.5 1.2
0.7 0.8 0.4 0.3 0.2 0.2 0.2 0.1 0.0 0.3 0.0 0.0 0.2 0.3 0.1 0.0 0.0 0.1 0.2 0.4 0.6 1.2 1.2 1.4 1.3 1.0 0.9 0.6 0.4 0.6 1.0 1.4 1.8 1.7 1.3 0.8 0.7 0.8 1.3 1.9 1.7 2.0 1.6
0.5 0.6 0.2 0.2 0.2 0.2 0.2 0.2 0.2 0.6 0.6 1.1 0.7 0.6 0.6 0.5 0.1 0.3 0.6 1.1 1.4 1.6 1.6 1.3 1.0 0.7 0.5 0.5 0.9 1.4 1.1 0.7 0.3 0.3 0.4 0.5 0.6 0.6 1.1 2.0 2.0 1.7 0.7
0.4 0.5 0.2 0.2 0.2 0.4 0.5 0.3 0.8 0.7 1.9 1.4 1.7 1.8 1.6 1.6 0.4 1.0 1.3 1.2 1.3 1.1 1.0 0.7 0.7 0.6 0.5 1.0 1.6 1.9 0.9 0.2 0.1 0.2 0.4 0.4 0.4 0.4 0.6 1.6 2.4 3.0 2.8
0.7 0.9 0.6 0.3 0.4 1.0 1.8 1.4 2.1 2.4 2.8 2.7 3.1 2.3 1.8 1.6 0.8 1.0 0.9 0.8 0.7 0.5 0.4 0.2 0.2 0.4 0.7 1.4 1.7 1.5 0.9 0.4 0.4 0.2 0.1 0.1 0.3 0.2 0.3 1.2 3.0 5.6 5.3
1.2 1.0 1.0 0.9 1.1 1.7 2.1 1.7 2.4 2.3 2.2 2.0 1.9 1.5 1.4 1.1 0.4 0.5 0.4 0.6 0.8 0.6 0.5 0.4 0.1 0.6 1.2 1.5 1.1 0.8 1.0 1.3 1.0 0.8 0.7 0.8 0.7 0.7 0.4 0.3 1.6 5.0 7.6
1.3 1.5 1.8 1.0 0.5 1.3 1.6 1.7 1.4 1.3 1.3 1.3 1.2 0.9 0.9 0.5 0.5 0.5 0.4 0.6 0.8 1.0 0.9 0.7 0.8 1.2 1.3 0.8 0.6 0.6 1.1 1.2 1.1 1.2 1.3 1.2 1.1 1.1 0.9 0.9 1.1 1.6 2.9
0.8 0.9 0.9 0.9 1.0 1.1 1.1 1.1 1.1 1.1 1.1 1.1 1.1 0.9 0.8 0.7 0.6 0.5 0.5 0.8 0.9 1.0 0.9 1.1 1.3 1.2 1.0 0.7 0.6 0.8 0.9 1.1 1.4 1.7 1.7 1.4 1.3 1.4 1.2 1.3 1.2 1.2 1.5
0.7 0.7 0.7 0.9 0.7 0.8 0.8 1.0 1.0 1.2 1.6 1.6 1.4 1.6 1.4 1.2 1.0 0.7 1.0 1.0 1.1 1.2 1.3 1.1 1.0 0.9 0.9 0.9 0.8 1.2 1.2 1.4 1.9 2.4 2.1 1.7 1.7 1.9 2.0 1.9 2.5 2.6 3.3
1.0 1.3 1.4 1.6 1.6 1.6 1.5 1.4 1.5 1.7 2.0 2.3 2.4 2.1 2.1 1.9 1.4 1.4 1.7 1.6 1.7 1.9 1.9 1.5 1.3 1.3 1.3 1.5 1.6 1.6 1.7 1.5 2.5 2.2 2.6 3.0 2.7 2.8 2.6 2.7 3.6 4.2 5.0
1.7 1.6 1.6 1.7 1.6 1.3 1.3 1.2 0.9 1.1 0.8 1.1 1.2 1.3 1.4 1.3 1.1 1.4 1.4 1.5 1.7 1.6 1.9 2.3 2.0 1.7 1.9 2.0 2.3 2.9 2.8 2.9 3.1 3.6 3.9 4.2 4.5 4.5 4.4 3.7 4.1 5.2 5.4
1.6 1.5 1.5 1.4 1.4 1.5 1.4 1.4 1.3 0.7 0.6 0.6 0.6 0.8 0.9 1.0 1.1 1.1 1.3 1.5 1.3 1.4 2.2 2.4 2.1 2.1 2.3 2.3 2.7 3.3 3.6 3.3 3.7 4.8 5.3 6.1 6.5 6.0 5.5 5.3 5.3 5.6 5.2
1.5 1.6 1.7 1.7 1.6 1.5 1.5 1.4 1.6 1.6 1.5 1.1 0.9 0.8 0.8 0.8 1.0 1.1 1.3 1.2 1.6 1.4 2.0 2.4 2.6 2.7 2.8 2.9 3.3 3.6 3.7 3.8 4.6 5.0 5.5 6.6 7.5 7.9 7.4 6.5 5.9 6.3 6.8
2.0 2.3 2.3 2.3 2.1 2.3 2.4 2.3 2.0 2.0 2.1 2.0 1.6 1.4 1.2 1.1 0.8 0.9 1.3 1.8 2.4 2.6 2.5 2.8 3.1 3.5 3.9 4.0 4.0 4.2 4.6 4.8 4.8 6.0 6.5 7.2 8.2 9.6 8.6 7.4 7.1 6.9 7.7
2.3 2.6 2.7 2.8 2.9 2.7 2.8 2.6 2.8 2.6 2.5 2.3 2.4 2.2 2.0 2.3 2.4 2.0 1.8 2.0 2.6 2.7 2.8 3.1 3.3 3.6 4.3 4.6 4.9 5.1 5.4 5.2 5.6 6.2 6.7 7.2 7.9 9.3 9.6 8.5 8.1 8.4 7.6
2.5 2.7 2.7 2.7 2.8 3.0 2.9 3.0 3.1 3.2 3.0 2.8 2.6 2.3 2.7 3.5 3.2 2.6 2.9 3.1 3.0 3.2 3.4 3.6 3.6 3.9 4.4 4.8 5.5 5.5 5.6 5.4 5.7 6.8 7.6 7.8 8.2 8.9 8.7 9.2 9.4 9.1 9.1
2.6 2.6 2.5 2.6 2.9 3.0 3.0 3.1 3.2 3.2 3.3 3.1 2.9 2.7 2.8 3.3 3.0 3.0 2.8 3.2 3.1 3.3 3.8 4.4 4.3 4.0 5.0 6.0 6.9 7.4 6.8 5.7 5.8 6.9 7.9 8.0 8.4 8.9 9.5 10.2 10.1 10.0 9.8
2.5 2.6 2.9 2.8 3.0 3.2 3.4 3.5 3.6 3.4 3.4 3.3 3.1 3.2 3.1 3.3 3.0 3.1 3.3 3.3 3.1 3.3 3.4 4.1 4.5 4.2 4.3 5.5 6.9 9.0 9.7 7.6 6.7 8.3 11.3 11.3 10.5 10.5 10.8 10.5 9.7 9.7 8.9
2.7 2.9 3.1 3.3 3.5 3.6 3.7 3.6 3.6 3.7 3.6 3.5 3.4 3.4 3.4 3.5 3.3 3.2 3.3 3.4 3.4 3.4 3.5 4.0 4.6 4.7 4.8 5.7 6.3 7.0 7.9 9.0 11.5 13.6 15.0 15.7 13.2 11.0 10.5 10.2 9.3 9.0 8.8
3.0 3.1 3.5 3.8 4.2 4.1 4.1 4.0 3.7 3.7 3.8 4.0 4.0 4.1 3.8 3.6 3.7 3.7 3.4 3.5 3.7 3.7 3.4 3.7 4.3 4.7 4.8 5.2 5.7 6.1 6.3 8.2 11.8 14.3 14.8 14.0 12.1 10.3 10.5 10.2 9.4 9.2 8.9
3.7 3.8 4.0 4.1 4.2 4.5 4.6 4.4 4.1 4.0 4.1 4.1 4.1 4.1 4.1 4.0 3.9 3.8 3.8 4.0 4.1 3.9 3.6 3.8 4.3 4.8 5.0 4.9 4.7 5.2 6.7 7.9 8.2 8.9 11.8 13.5 12.4 10.3 10.3 10.9 9.9 9.5 9.3